Time,TemperatureF,DewpointF,PressureIn,WindDirection,WindDirectionDegrees,WindSpeedMPH,WindSpeedGustMPH,Humidity,HourlyPrecipIn,Conditions,Clouds,dailyrainin,SoftwareType,DateUTC
2013-02-05 05:34:00,65.3,62.6,29.97,ESE,112,0.0,-999.0,91,-99.99,,,0.00,Acu-Link.com,2013-02-05 15:34:00,
2013-02-05 05:49:00,65.3,61.7,29.97,SSE,157,0.0,-999.0,88,-99.99,,,0.00,Acu-Link.com,2013-02-05 15:49:00,
2013-02-05 06:19:00,65.3,62.0,29.99,ESE,112,0.0,-999.0,89,-99.99,,,0.00,Acu-Link.com,2013-02-05 16:19:00,
2013-02-05 06:34:00,65.3,61.7,29.99,NNE,22,0.0,-999.0,88,-99.99,,,0.00,Acu-Link.com,2013-02-05 16:34:00,
2013-02-05 06:50:00,65.7,61.1,29.98,North,0,2.2,-999.0,85,-99.99,,,0.00,Acu-Link.com,2013-02-05 16:50:00,
2013-02-05 07:05:00,65.5,61.2,29.99,SW,225,1.7,-999.0,86,-99.99,,,0.00,Acu-Link.com,2013-02-05 17:05:00,
2013-02-05 07:21:00,65.3,61.3,29.99,SE,135,0.0,-999.0,87,-99.99,,,0.00,Acu-Link.com,2013-02-05 17:21:00,
2013-02-05 07:36:00,65.8,60.8,30.01,East,90,2.2,-999.0,84,-99.99,,,0.00,Acu-Link.com,2013-02-05 17:36:00,
2013-02-05 07:51:00,66.6,59.9,29.99,East,90,1.1,-999.0,79,-99.99,,,0.00,Acu-Link.com,2013-02-05 17:51:00,
2013-02-05 08:32:00,66.9,59.4,30.00,NNE,22,4.2,-999.0,77,-99.99,,,0.00,Acu-Link.com,2013-02-05 18:32:00,
2013-02-05 08:48:00,70.0,60.5,30.01,East,90,1.7,-999.0,72,-99.99,,,0.00,Acu-Link.com,2013-02-05 18:48:00,
2013-02-05 09:08:00,70.2,59.5,30.01,South,180,2.2,-999.0,69,-99.99,,,0.00,Acu-Link.com,2013-02-05 19:08:00,
2013-02-05 09:55:00,70.5,60.2,30.02,NNE,22,1.7,-999.0,70,-99.99,,,0.00,Acu-Link.com,2013-02-05 19:55:00,
2013-02-05 11:28:00,75.6,61.2,30.00,SW,225,2.7,-999.0,61,-99.99,,,0.00,Acu-Link.com,2013-02-05 21:28:00,
2013-02-05 11:43:00,76.8,61.4,29.99,ESE,112,1.7,-999.0,59,-99.99,,,0.00,Acu-Link.com,2013-02-05 21:43:00,
2013-02-05 11:59:00,77.2,61.3,29.98,SW,225,2.7,-999.0,58,-99.99,,,0.00,Acu-Link.com,2013-02-05 21:59:00,
2013-02-05 12:14:00,75.9,61.0,29.99,South,180,1.7,-999.0,60,-99.99,,,0.00,Acu-Link.com,2013-02-05 22:14:00,
2013-02-05 12:29:00,77.9,61.4,29.97,WSW,247,2.7,-999.0,57,-99.99,,,0.00,Acu-Link.com,2013-02-05 22:29:00,
2013-02-05 12:45:00,79.0,61.4,29.96,NNE,22,2.7,-999.0,55,-99.99,,,0.00,Acu-Link.com,2013-02-05 22:45:00,
2013-02-05 13:00:00,77.0,62.0,29.96,NNE,22,3.2,-999.0,60,-99.99,,,0.00,Acu-Link.com,2013-02-05 23:00:00,
2013-02-05 13:15:00,79.5,62.4,29.95,SE,135,1.7,-999.0,56,-99.99,,,0.00,Acu-Link.com,2013-02-05 23:15:00,
2013-02-05 13:30:00,80.1,61.4,29.95,SSW,202,2.2,-999.0,53,-99.99,,,0.00,Acu-Link.com,2013-02-05 23:30:00,
2013-02-05 13:45:00,80.4,61.7,29.94,West,270,1.7,-999.0,53,-99.99,,,0.00,Acu-Link.com,2013-02-05 23:45:00,
2013-02-05 14:01:00,80.1,61.4,29.94,SW,225,2.2,-999.0,53,-99.99,,,0.00,Acu-Link.com,2013-02-06 00:01:00,
2013-02-05 14:16:00,79.7,61.0,29.95,NNW,337,3.7,-999.0,53,-99.99,,,0.00,Acu-Link.com,2013-02-06 00:16:00,
2013-02-05 14:31:00,80.1,61.9,29.94,SSE,157,1.7,-999.0,54,-99.99,,,0.00,Acu-Link.com,2013-02-06 00:31:00,
2013-02-05 14:47:00,79.2,61.1,29.93,NE,45,2.2,-999.0,54,-99.99,,,0.00,Acu-Link.com,2013-02-06 00:47:00,
2013-02-05 15:02:00,78.4,60.9,29.92,SSE,157,2.2,-999.0,55,-99.99,,,0.00,Acu-Link.com,2013-02-06 01:02:00,
2013-02-05 15:17:00,78.4,61.4,29.93,NNE,22,3.7,-999.0,56,-99.99,,,0.00,Acu-Link.com,2013-02-06 01:17:00,
2013-02-05 15:33:00,79.0,61.9,29.91,NNW,337,0.0,-999.0,56,-99.99,,,0.00,Acu-Link.com,2013-02-06 01:33:00,
2013-02-05 15:48:00,77.5,61.5,29.90,NNE,22,4.7,-999.0,58,-99.99,,,0.00,Acu-Link.com,2013-02-06 01:48:00,
2013-02-05 16:03:00,77.9,61.9,29.91,NNE,22,1.1,-999.0,58,-99.99,,,0.00,Acu-Link.com,2013-02-06 02:03:00,
2013-02-05 16:18:00,76.6,61.2,29.91,SW,225,1.1,-999.0,59,-99.99,,,0.00,Acu-Link.com,2013-02-06 02:18:00,
2013-02-05 16:34:00,77.9,62.4,29.91,WSW,247,2.2,-999.0,59,-99.99,,,0.00,Acu-Link.com,2013-02-06 02:34:00,
2013-02-05 16:49:00,75.0,61.1,29.94,ENE,67,2.2,-999.0,62,-99.99,,,0.00,Acu-Link.com,2013-02-06 02:49:00,
2013-02-05 17:04:00,77.2,61.3,29.95,NNE,22,2.7,-999.0,58,-99.99,,,0.00,Acu-Link.com,2013-02-06 03:04:00,
2013-02-05 17:20:00,76.1,63.0,29.92,NNE,22,2.7,-999.0,64,-99.99,,,0.00,Acu-Link.com,2013-02-06 03:20:00,
2013-02-05 17:35:00,74.5,64.1,29.93,NNE,22,5.8,-999.0,70,-99.99,,,0.00,Acu-Link.com,2013-02-06 03:35:00,
2013-02-05 17:50:00,71.8,64.9,29.96,NNE,22,1.7,-999.0,79,-99.99,,,0.02,Acu-Link.com,2013-02-06 03:50:00,
2013-02-05 18:05:00,70.2,65.1,29.97,SSE,157,1.7,-999.0,84,-99.99,,,0.03,Acu-Link.com,2013-02-06 04:05:00,
2013-02-05 18:21:00,68.5,64.5,29.98,NE,45,0.0,-999.0,87,-99.99,,,0.04,Acu-Link.com,2013-02-06 04:21:00,
2013-02-05 18:36:00,67.5,64.1,29.99,NE,45,3.2,-999.0,89,-99.99,,,0.07,Acu-Link.com,2013-02-06 04:36:00,
2013-02-05 18:51:00,66.6,64.2,29.99,ESE,112,0.0,-999.0,92,-99.99,,,0.07,Acu-Link.com,2013-02-06 04:51:00,
2013-02-05 19:06:00,65.8,63.7,29.99,ESE,112,0.0,-999.0,93,-99.99,,,0.07,Acu-Link.com,2013-02-06 05:06:00,
2013-02-05 19:22:00,65.8,64.3,29.99,NE,45,1.7,-999.0,95,-99.99,,,0.10,Acu-Link.com,2013-02-06 05:22:00,
2013-02-05 19:37:00,65.8,64.6,29.98,NE,45,3.2,-999.0,96,-99.99,,,0.10,Acu-Link.com,2013-02-06 05:37:00,
2013-02-05 19:52:00,65.7,64.5,29.99,SE,135,0.0,-999.0,96,-99.99,,,0.12,Acu-Link.com,2013-02-06 05:52:00,
2013-02-05 20:07:00,65.5,64.6,30.00,SSE,157,1.1,-999.0,97,-99.99,,,0.12,Acu-Link.com,2013-02-06 06:07:00,
2013-02-05 20:23:00,65.5,64.6,30.00,ESE,112,2.2,-999.0,97,-99.99,,,0.14,Acu-Link.com,2013-02-06 06:23:00,
2013-02-05 20:38:00,65.7,64.8,30.02,North,0,1.7,-999.0,97,-99.99,,,0.20,Acu-Link.com,2013-02-06 06:38:00,
2013-02-05 20:53:00,65.7,64.8,30.01,NNE,22,2.2,-999.0,97,-99.99,,,0.22,Acu-Link.com,2013-02-06 06:53:00,
2013-02-05 21:09:00,65.7,65.1,30.02,NNE,22,2.7,-999.0,98,-99.99,,,0.23,Acu-Link.com,2013-02-06 07:09:00,
2013-02-05 21:24:00,65.5,64.9,30.02,SE,135,1.1,-999.0,98,-99.99,,,0.24,Acu-Link.com,2013-02-06 07:24:00,
2013-02-05 21:39:00,65.1,64.2,30.02,ENE,67,0.0,-999.0,97,-99.99,,,0.24,Acu-Link.com,2013-02-06 07:39:00,
2013-02-05 21:54:00,64.6,63.7,30.00,ESE,112,0.0,-999.0,97,-99.99,,,0.24,Acu-Link.com,2013-02-06 07:54:00,
2013-02-05 22:10:00,64.2,63.0,30.00,NE,45,1.7,-999.0,96,-99.99,,,0.24,Acu-Link.com,2013-02-06 08:10:00,
2013-02-05 22:25:00,64.2,63.3,30.00,North,0,0.0,-999.0,97,-99.99,,,0.24,Acu-Link.com,2013-02-06 08:25:00,
2013-02-05 22:40:00,64.6,63.7,30.00,East,90,1.1,-999.0,97,-99.99,,,0.24,Acu-Link.com,2013-02-06 08:40:00,
2013-02-05 22:56:00,64.2,63.6,30.01,ESE,112,1.1,-999.0,98,-99.99,,,0.24,Acu-Link.com,2013-02-06 08:56:00,
2013-02-05 23:11:00,63.9,63.3,30.03,ENE,67,0.0,-999.0,98,-99.99,,,0.24,Acu-Link.com,2013-02-06 09:11:00,
2013-02-05 23:26:00,63.7,63.1,30.01,NE,45,1.7,-999.0,98,-99.99,,,0.24,Acu-Link.com,2013-02-06 09:26:00,
2013-02-05 23:42:00,63.3,62.7,30.01,SSW,202,1.1,-999.0,98,-99.99,,,0.24,Acu-Link.com,2013-02-06 09:42:00,
2013-02-05 23:57:00,63.5,62.9,30.00,ENE,67,0.0,-999.0,98,-99.99,,,0.24,Acu-Link.com,2013-02-06 09:57:00,